Weather in Tulsipur

Nepal     28°08′19″N   82°18′52″E
temp.,
°C
wind,
m/s
gust,
m/s
humid.,
%
clouds,
%
prec.,
mm/h
press.,
hPa
HPBL,
m
15 april, thu
thu1523:45+21ne32160 0.0 101118
02:45+20ne33190 0.0 101021
05:45+19nne332061 0.0 101122
08:45+28s111261 0.0 1012955
11:45+32sw561075 0.0 10104394
14:45+32wsw7697 0.0 10064067
17:45+30w471023 0.0 10053096
20:45+24nne321692 0.0 100821
16 april, fri
fri1623:45+20nne44235 0.0 100944
02:45+19nne43254 0.0 100836
05:45+19nne43260 0.0 100834
08:45+30nw12130 0.0 1009763
11:45+33wsw54952 0.0 10084914
14:45+33wsw97925 0.0 10044653
17:45+31w461049 0.0 10052518
20:45+22nne432127 0.0 100829
17 april, sat
sat1723:45+21nne332533 0.0 100928
02:45+20nne432365 0.0 100832
05:45+20nne432241 0.0 101035
08:45+29ssw2213100 0.0 1010783
11:45+29sw5516100 0.1 10112283
14:45+26ene232426 0.0 1011695
17:45+27w222287 0.0 10082085
20:45+16nne457383 0.9 1014123
18 april, sun
sun1823:45+17nne4463100 1.7 101381
02:45+16nne43533 0.0 101140
05:45+16nne33470 0.0 101233
08:45+26wsw22240 0.0 10121101
11:45+30sw64160 0.0 10103321
14:45+30wsw66152 0.0 10073533
17:45+28wnw57140 0.0 10063020
20:45+20nne33242 0.0 100925
19 april, mon
mon1923:45+19nne43323 0.0 100941
02:45+18nne443236 0.0 100845
05:45+18nne432930 0.0 100836
08:45+28wnw131461 0.0 10081271
11:45+31wsw588100 0.0 10073863
14:45+31w687100 0.0 10043828
17:45+29w471038 0.0 10042130
20:45+22nne32165 0.0 100717